Regional Weather Roundup
Issued by NWS

Home | Current Version | Previous Version | Graphics & Text | Print | Product List | Glossary On
Versions: 1 2 3 4 5 6 7 8 9 10 11 12 13 14 15 16 17 18 19 20 21 22 23 24 25 26 27 28 29 30 31 32 33 34 35 36 37 38 39 40 41 42 43 44 45 46 47 48 49 50
000
ASUS43 KLSX 291907
RWRMO

WEATHER SUMMARY FOR MISSOURI
NATIONAL WEATHER SERVICE SPRINGFIELD MO
200 PM CDT FRI AUG 29 2014

NOTE: "FAIR" INDICATES FEW OR NO CLOUDS BELOW 12,000 FEET WITH NO
       SIGNIFICANT WEATHER AND/OR OBSTRUCTIONS TO VISIBILITY.
       CURRENT SKY AND/OR WEATHER CONDITIONS ARE NOT AVAILABLE FOR
       CHILLICOTHE AND FARMINGTON.

MOZ001>031-035>038-043-044-053-054-292000-
...NORTHERN AND WESTERN MISSOURI...

CITY           SKY/WX    TMP DP  RH WIND       PRES   REMARKS
KANSAS CTY INT CLOUDY    74  69  85 S10       29.86F
KANSAS C DTWN  CLOUDY    76  70  82 SW10      29.85F
LEE`S SUMMIT   PTSUNNY   75  69  81 SW12G21   29.87F
ST JOSEPH      CLOUDY    74  70  87 S9        29.84F
CHILLICOTHE      N/A     74  70  87 SW8       29.87R
KIRKSVILLE     MOSUNNY   83  69  62 S14       29.85F

$$
MOZ066>068-077>081-088>096-101>105-292000-
...SOUTHWEST MISSOURI...

CITY           SKY/WX    TMP DP  RH WIND       PRES   REMARKS
SPRINGFIELD    MOSUNNY   80  71  74 S12       29.90F
JOPLIN         MOSUNNY   88  64  44 SW18G24   29.90F

$$
MOZ032>034-039>042-045>050-055>058-069>072-292000-
...CENTRAL MISSOURI...

CITY           SKY/WX    TMP DP  RH WIND       PRES   REMARKS
COLUMBIA       MOSUNNY   91  65  41 S13       29.86F HX  93
JEFFERSON CITY MOSUNNY   91  66  43 S12G21    29.84F HX  93
ROLLA          PTSUNNY   89  61  38 S15G23    29.88F
SEDALIA        PTSUNNY   79  69  71 SW10      29.88S
WHITEMAN AFB   PTSUNNY   77  72  84 SW10      29.86F
OSAGE BEACH    CLOUDY    75  70  83 W12       29.87S

$$
MOZ051-052-059>065-292000-
...EAST CENTRAL MISSOURI...

CITY           SKY/WX    TMP DP  RH WIND       PRES   REMARKS
ST LOUIS INTL  MOSUNNY   92  61  35 S14       29.91F HX  92
SPIRIT OF STL  MOSUNNY   90  65  43 VRB7      29.88F HX  92
ST CHARLES     MOSUNNY   88  67  49 S8        29.89F HX  91

$$
MOZ072>076-082>087-097>100-106>115-292000-
...SOUTH CENTRAL AND SOUTHEAST MISSOURI...

CITY           SKY/WX    TMP DP  RH WIND       PRES   REMARKS
CAPE GIRARDEAU MOSUNNY   89  67  47 S14       29.94F HX  92
FARMINGTON     PTSUNNY   90  63  40 S10       29.95F HX  90
POPLAR BLUFF   SUNNY     92  63  38 S12       29.91F HX  93
WEST PLAINS    MOSUNNY   87  63  44 SW15G23   29.95F

$$



USA.gov is the U.S. government's official web portal to all federal, state and local government web resources and services.